Location: Cronhütte
(48.9135°N, 9.6869°E)
Time: 23:10:36
(UTC+00:00)

Tiangong - Visible Passes

Search period start: 24 January 2026 00:00
Search period end: 03 February 2026 00:00
Orbit: 378 x 392 km, 41.5° (Epoch: 24 January)

Date Brightness Start Highest point End Pass type
(mag) Time Alt. Az. Time Alt. Az. Time Alt. Az.
24 Jan 1.1 04:09:58 12° SE 04:09:58 12° SE 04:10:18 10° ESE visible
24 Jan 0.0 05:42:11 12° SW 05:44:13 20° S 05:46:38 10° SE visible
25 Jan 0.0 04:45:22 20° SSE 04:45:22 20° SSE 04:47:16 10° SE visible
25 Jan 0.4 06:19:19 10° SW 06:20:57 13° SSW 06:22:37 10° SSE visible
26 Jan 0.0 05:20:42 16° SSW 05:21:30 17° SSW 05:23:38 10° SSE visible
27 Jan 0.8 04:23:47 13° SE 04:23:47 13° SE 04:24:20 10° SE visible
28 Jan 0.4 04:59:04 13° S 04:59:04 13° S 05:00:07 10° SSE visible
